DW0231 Weather Reports


Display with metric or nautical units.
time (UTC)temp
F
wind
direction
speed
MPH
gust
MPH
rain 1hr
in
rain 24hr
in
rain mn
in
humidity
%
barometer
mb
20260504223038 55 24 1.0 0.0 0.00 0.00 0.17 71 1001.2
20260504221525 56 57 2.0 0.0 0.00 0.00 0.16 65 1001.8
20260504220018 62 59 6.0 0.0 0.00 0.00 0.05 50 1002.5
20260504214551 68 56 2.0 0.0 0.00 0.00 0.00 35 1000.7
20260504213045 69 188 2.0 0.0 0.00 0.00 0.00 28 1000.4
20260504211513 70 209 1.0 0.0 0.00 0.00 0.00 29 1000.4
20260504210004 71 209 1.0 0.0 0.00 0.00 0.00 29 1000.5
20260504204600 72 209 3.0 0.0 0.00 0.00 0.00 27 1000.6
20260504203034 74 209 2.0 0.0 0.00 0.00 0.00 26 1000.6
20260504201518 75 210 2.0 0.0 0.00 0.00 0.00 27 1000.6
20260504200006 74 217 2.0 0.0 0.00 0.00 0.00 26 1000.8
20260504194551 74 186 2.0 0.0 0.00 0.00 0.00 26 1000.7
20260504193100 74 167 2.0 0.0 0.00 0.00 0.00 26 1001.0
20260504191534 73 198 3.0 0.0 0.00 0.00 0.00 26 1001.2
20260504190014 74 200 3.0 0.0 0.00 0.00 0.00 25 1001.3
20260504184509 73 185 2.0 0.0 0.00 0.00 0.00 26 1001.6
20260504183102 72 195 2.0 0.0 0.00 0.00 0.00 27 1001.9
20260504181525 72 213 4.0 0.0 0.00 0.00 0.00 28 1002.0
20260504180018 72 198 3.0 0.0 0.00 0.00 0.00 28 1002.2
20260504174513 71 209 3.0 0.0 0.00 0.00 0.00 29 1002.2
20260504173050 70 212 2.0 0.0 0.00 0.00 0.00 30 1002.4
20260504171513 69 212 3.0 0.0 0.00 0.00 0.00 33 1002.8
20260504170105 69 222 2.0 0.0 0.00 0.00 0.00 32 1002.8
20260504081543 53 227 0.0 0.0 0.00 0.00 0.00 40 1003.6
20260504044508 59 227 0.0 0.0 0.00 0.00 0.00 33 1004.1
20260504043102 59 227 0.0 0.0 0.00 0.00 0.00 34 1004.1
20260504041524 60 227 0.0 0.0 0.00 0.00 0.00 32 1004.1
20260504040020 60 227 0.0 0.0 0.00 0.00 0.00 31 1004.1
20260504034558 61 227 0.0 0.0 0.00 0.00 0.00 31 1004.1
20260504033031 61 227 0.0 0.0 0.00 0.00 0.00 31 1004.0
20260504031518 61 227 0.0 0.0 0.00 0.00 0.00 31 1003.8
20260504030105 62 227 0.0 0.0 0.00 0.00 0.00 32 1003.8
20260504024533 63 227 0.0 0.0 0.00 0.00 0.00 32 1003.7
20260504023010 65 227 0.0 0.0 0.00 0.00 0.00 28 1003.6
20260504021557 66 227 0.0 0.0 0.00 0.00 0.00 28 1003.6
20260504020046 67 227 0.0 0.0 0.00 0.00 0.00 27 1003.5
20260504014512 69 227 0.0 0.0 0.00 0.00 0.00 26 1003.7
20260504013105 70 227 0.0 0.0 0.00 0.00 0.00 24 1003.9
20260504011537 71 227 0.0 0.0 0.00 0.00 0.00 21 1003.9
20260504010016 72 227 0.0 0.0 0.00 0.00 0.00 20 1004.1
20260504004515 73 227 0.0 0.0 0.00 0.00 0.00 19 1004.3
20260504003057 73 226 1.0 0.0 0.00 0.00 0.00 18 1004.3
20260504001559 74 221 1.0 0.0 0.00 0.00 0.00 19 1004.4
20260504000032 74 222 0.0 0.0 0.00 0.00 0.00 18 1004.5
20260503234524 74 221 0.0 0.0 0.00 0.00 0.00 17 1004.4
20260503233059 75 218 1.0 0.0 0.00 0.00 0.00 16 1004.6
20260503231549 75 217 1.0 0.0 0.00 0.00 0.00 16 1004.7
20260503230028 76 217 3.0 0.0 0.00 0.00 0.00 16 1004.7
20260503224514 76 360 2.0 0.0 0.00 0.00 0.00 15 1004.8